Weather History for KEKO - October, 2012

Change the Weather History Date:

Thursday, October 18, 2012

  Actual Average Record
Temperature  
Mean Temperature 45 °F 46 °F  
Max Temperature 69 °F 64 °F 82 °F (2003)
Min Temperature 21 °F 28 °F 10 °F (1910)
Degree Days  
Heating Degree Days 20 19  
Month to date heating degree days 216 287  
Since 1 July heating degree days 291 545  
Cooling Degree Days 0 0  
Month to date cooling degree days 0 0  
Year to date cooling degree days 682 383  
Moisture  
Dew Point 13 °F    
Average Humidity 32    
Maximum Humidity 50    
Minimum Humidity 13    
Precipitation  
Precipitation 0.00 in 0.03 in 0.52 in (1953)
Month to date precipitation 0.03 0.39  
Year to date precipitation 5.02 7.24  
Snow  
Snow 0.00 in 0.00 in 1.10 in (2004)
Month to date snowfall 0.0 0.2  
Since 1 July snowfall 0.0 0.3  
Since 1 September snowfall 0.0 0.3  
Snow Depth 0.00 in    
Sea Level Pressure  
Sea Level Pressure 30.24 in    
Wind  
Wind Speed 2 mph (ENE)    
Max Wind Speed 7 mph    
Max Gust Speed 8 mph    
Visibility 10 miles    
Events      
T = Trace of Precipitation, MM = Missing Value Source: NWS Daily Summary

Daily Weather History Graph

Daily Weather History Graph

Search for Another Location

Airport or City:

Trip Planner

Search our weather history database for the weather conditions in past years. The results will help you decide how hot, cold, wet, or windy it might be!

Date:

Astronomy

Oct. 18, 2012 Rise Set
Actual Time 6:58 AM PDT 5:57 PM PDT
Civil Twilight 6:30 AM PDT 6:25 PM PDT
Nautical Twilight 5:58 AM PDT 6:56 PM PDT
Astronomical Twilight 5:26 AM PDT 7:28 PM PDT
Moon 10:46 AM PDT (10/18) 8:34 PM PDT (10/18)
Length of Visible Light 11h 54m
Length of Day
10h 59m
Waxing Crescent, 15% of the Moon is Illuminated
Oct 18
Waxing Crescent
Oct 21
First Quarter
Oct 29
Full
Nov 6
Last Quarter
Nov 13
New

Hourly Weather History & Observations

Time (PDT) Temp. Windchill Dew Point Humidity Pressure Visibility Wind Dir Wind Speed Gust Speed Precip Events Conditions
12:56 AM 30.0 °F - 10.9 °F 45% 30.29 in 10.0 mi Calm Calm - N/A   Clear
1:56 AM 28.9 °F - 10.9 °F 47% 30.29 in 10.0 mi Calm Calm - N/A   Clear
3:56 AM 28.9 °F 22.8 °F 9.0 °F 43% 30.29 in 10.0 mi East 5.8 mph - N/A   Clear
4:56 AM 30.0 °F 25.2 °F 9.0 °F 41% 30.30 in 10.0 mi ENE 4.6 mph - N/A   Clear
5:56 AM 26.1 °F - 7.0 °F 44% 30.33 in 10.0 mi Calm Calm - N/A   Clear
7:56 AM 28.0 °F - 10.0 °F 47% 30.38 in 5.0 mi Calm Calm - N/A   Haze
9:56 AM 44.1 °F 42.5 °F 10.0 °F 25% 30.34 in 10.0 mi East 3.5 mph - N/A   Clear
10:56 AM 51.1 °F - 10.9 °F 20% 30.31 in 10.0 mi Calm Calm - N/A   Clear
11:56 AM 59.0 °F - 12.0 °F 16% 30.28 in 10.0 mi Variable 3.5 mph - N/A   Clear
12:56 PM 62.1 °F - 10.9 °F 13% 30.26 in 10.0 mi Calm Calm - N/A   Clear
1:56 PM 64.9 °F - 15.1 °F 15% 30.22 in 10.0 mi Calm Calm - N/A   Clear
3:56 PM 66.9 °F - 17.1 °F 15% 30.18 in 10.0 mi Calm Calm - N/A   Clear
4:56 PM 68.0 °F - 16.0 °F 14% 30.16 in 10.0 mi Calm Calm - N/A   Clear
5:56 PM 62.1 °F - 19.0 °F 19% 30.16 in 10.0 mi ESE 3.5 mph - N/A   Clear
6:56 PM 53.1 °F - 17.1 °F 24% 30.19 in 10.0 mi NNW 4.6 mph - N/A   Clear
7:56 PM 51.1 °F - 18.0 °F 27% 30.19 in 10.0 mi Calm Calm - N/A   Clear
8:56 PM 44.1 °F - 15.1 °F 31% 30.18 in 10.0 mi Calm Calm - N/A   Clear
9:56 PM 42.1 °F 39.2 °F 17.1 °F 37% 30.18 in 6.0 mi ENE 4.6 mph - N/A   Haze
10:56 PM 39.9 °F 35.8 °F 17.1 °F 40% 30.17 in 10.0 mi ENE 5.8 mph - N/A   Clear
11:56 PM 36.0 °F - 14.0 °F 41% 30.15 in 10.0 mi Calm Calm - N/A   Clear